TimePDT,TemperatureF,Dew PointF,Humidity,Sea Level PressureIn,VisibilityMPH,Wind Direction,Wind SpeedMPH,Gust SpeedMPH,PrecipitationIn,Events,Conditions,WindDirDegrees,DateUTC
12:15 AM,50.0,48.2,94,29.87,5.0,Calm,Calm,-,N/A,,Clear,0,2012-10-12 07:15:00
12:35 AM,50.0,48.2,94,29.87,6.0,WSW,3.5,-,N/A,,Clear,240,2012-10-12 07:35:00
12:55 AM,50.0,48.2,94,29.87,6.0,Calm,Calm,-,N/A,,Clear,0,2012-10-12 07:55:00
1:15 AM,50.0,48.2,94,29.87,6.0,SW,3.5,-,N/A,,Clear,230,2012-10-12 08:15:00
1:55 AM,50.0,46.4,87,29.88,10.0,Calm,Calm,-,N/A,,Clear,0,2012-10-12 08:55:00
2:15 AM,50.0,46.4,87,29.88,10.0,South,4.6,-,N/A,,Clear,190,2012-10-12 09:15:00
2:35 AM,50.0,48.2,94,29.88,9.0,South,4.6,-,N/A,,Clear,190,2012-10-12 09:35:00
3:15 AM,50.0,48.2,94,29.88,3.0,SSE,5.8,-,N/A,,Clear,160,2012-10-12 10:15:00
3:35 AM,50.0,48.2,94,29.88,2.0,SSE,4.6,-,N/A,,Scattered Clouds,160,2012-10-12 10:35:00
3:55 AM,48.2,48.2,100,29.89,1.8,SSE,4.6,-,N/A,,Scattered Clouds,160,2012-10-12 10:55:00
4:15 AM,50.0,48.2,94,29.89,7.0,SSE,3.5,-,N/A,,Clear,160,2012-10-12 11:15:00
5:15 AM,50.0,48.2,94,29.89,9.0,SSE,4.6,-,N/A,,Clear,150,2012-10-12 12:15:00
5:35 AM,50.0,48.2,94,29.89,9.0,SSE,4.6,-,N/A,,Clear,150,2012-10-12 12:35:00
5:55 AM,50.0,48.2,94,29.89,5.0,South,4.6,-,N/A,,Clear,170,2012-10-12 12:55:00
6:15 AM,50.0,48.2,94,29.89,5.0,South,4.6,-,N/A,,Clear,170,2012-10-12 13:15:00
6:35 AM,50.0,48.2,94,29.89,5.0,South,3.5,-,N/A,,Clear,180,2012-10-12 13:35:00
7:15 AM,50.0,48.2,94,29.90,5.0,South,5.8,-,N/A,,Clear,190,2012-10-12 14:15:00
7:35 AM,50.0,48.2,94,29.90,5.0,South,5.8,-,N/A,,Clear,190,2012-10-12 14:35:00
7:55 AM,50.0,48.2,94,29.90,5.0,South,5.8,-,N/A,,Clear,170,2012-10-12 14:55:00
8:15 AM,50.0,48.2,94,29.91,5.0,South,6.9,-,N/A,,Clear,190,2012-10-12 15:15:00
8:35 AM,50.0,48.2,94,29.92,4.0,South,5.8,-,N/A,,Clear,190,2012-10-12 15:35:00
8:55 AM,50.0,48.2,94,29.92,3.0,South,4.6,-,N/A,Rain,Light Rain,180,2012-10-12 15:55:00
9:15 AM,50.0,48.2,94,29.93,5.0,South,6.9,-,N/A,,Clear,180,2012-10-12 16:15:00
9:35 AM,51.8,48.2,88,29.94,8.0,South,8.1,-,N/A,,Clear,180,2012-10-12 16:35:00
10:15 AM,51.8,48.2,88,29.94,1.2,South,10.4,-,0.01,,Mostly Cloudy,180,2012-10-12 17:15:00
10:35 AM,50.0,48.2,94,29.94,2.0,South,9.2,17.3,0.01,,Mostly Cloudy,180,2012-10-12 17:35:00
10:55 AM,50.0,48.2,94,29.94,9.0,South,11.5,18.4,0.01,,Mostly Cloudy,190,2012-10-12 17:55:00
11:35 AM,51.8,50.0,94,29.95,2.5,South,9.2,-,N/A,Rain,Light Rain,190,2012-10-12 18:35:00
12:55 PM,51.8,50.0,94,29.97,2.5,South,11.5,17.3,0.01,Rain,Light Rain,180,2012-10-12 19:55:00
1:35 PM,53.6,50.0,88,29.95,4.0,South,13.8,21.9,N/A,,Clear,180,2012-10-12 20:35:00
1:55 PM,53.6,50.0,88,29.95,4.0,South,15.0,21.9,N/A,Rain,Light Rain,180,2012-10-12 20:55:00
2:15 PM,53.6,50.0,88,29.95,5.0,South,17.3,23.0,N/A,,Clear,180,2012-10-12 21:15:00
2:35 PM,53.6,50.0,88,29.95,5.0,South,13.8,19.6,N/A,,Clear,180,2012-10-12 21:35:00
2:55 PM,53.6,50.0,88,29.95,5.0,South,15.0,19.6,N/A,,Clear,190,2012-10-12 21:55:00
3:15 PM,53.6,50.0,88,29.96,5.0,South,16.1,23.0,N/A,,Clear,190,2012-10-12 22:15:00
3:35 PM,53.6,50.0,88,29.95,5.0,South,13.8,20.7,N/A,,Mist,180,2012-10-12 22:35:00
4:15 PM,55.4,50.0,82,29.95,5.0,South,13.8,23.0,N/A,,Haze,190,2012-10-12 23:15:00
4:35 PM,55.4,50.0,82,29.94,5.0,South,17.3,21.9,N/A,,Mist,180,2012-10-12 23:35:00
4:55 PM,53.6,50.0,88,29.95,5.0,South,16.1,25.3,N/A,,Mist,180,2012-10-12 23:55:00
5:15 PM,53.6,50.0,88,29.97,10.0,South,17.3,23.0,N/A,,Unknown,190,2012-10-13 00:15:00
5:55 PM,53.6,50.0,88,29.96,10.0,South,13.8,24.2,N/A,,Unknown,170,2012-10-13 00:55:00
6:15 PM,53.6,50.0,88,29.96,10.0,South,16.1,24.2,N/A,,Unknown,180,2012-10-13 01:15:00
6:35 PM,53.6,50.0,88,29.97,10.0,South,17.3,21.9,N/A,,Unknown,180,2012-10-13 01:35:00
6:55 PM,53.6,50.0,88,29.97,10.0,South,16.1,21.9,N/A,,Unknown,180,2012-10-13 01:55:00
7:15 PM,53.6,50.0,88,29.97,9.0,South,15.0,21.9,N/A,,Unknown,170,2012-10-13 02:15:00
7:35 PM,53.6,50.0,88,29.98,10.0,South,13.8,20.7,N/A,,Unknown,180,2012-10-13 02:35:00
8:15 PM,53.6,50.0,88,29.98,10.0,South,15.0,21.9,N/A,,Unknown,170,2012-10-13 03:15:00
8:55 PM,53.6,50.0,88,29.99,10.0,South,10.4,23.0,N/A,,Unknown,170,2012-10-13 03:55:00
9:15 PM,53.6,50.0,88,29.99,10.0,South,11.5,21.9,N/A,,Unknown,190,2012-10-13 04:15:00
9:35 PM,53.6,50.0,88,30.00,10.0,South,11.5,18.4,N/A,,Unknown,180,2012-10-13 04:35:00
10:35 PM,53.6,50.0,88,30.03,10.0,South,10.4,18.4,N/A,,Unknown,180,2012-10-13 05:35:00
10:55 PM,53.6,50.0,88,30.04,10.0,South,9.2,-,N/A,,Unknown,180,2012-10-13 05:55:00
11:15 PM,53.6,50.0,88,30.05,10.0,South,9.2,-,N/A,,Unknown,190,2012-10-13 06:15:00